Datum;Richtung;Anzahl Messungen;Anzahl Fahrzeuge;Durchschnittsgeschwindigkeit;Höchstgeschwindigkeit
11/10/2021 12:30;1;35;35;24.69;47.00
11/10/2021 13:00;1;50;50;26.48;44.00
11/10/2021 13:30;1;53;53;25.98;40.00
11/10/2021 14:00;1;43;43;25.81;43.00
11/10/2021 14:30;1;63;63;24.92;42.00
11/10/2021 15:00;1;73;73;25.97;45.00
11/10/2021 15:30;1;58;58;25.17;42.00
11/10/2021 16:00;1;67;67;25.90;41.00
11/10/2021 16:30;1;67;67;24.64;35.00
11/10/2021 17:00;1;63;63;25.73;40.00
11/10/2021 17:30;1;66;66;26.89;42.00
11/10/2021 18:00;1;41;41;26.10;43.00
11/10/2021 18:30;1;53;53;26.19;43.00
11/10/2021 19:00;1;42;42;24.86;40.00
11/10/2021 19:30;1;22;22;30.41;49.00
11/10/2021 20:00;1;16;16;29.94;53.00
11/10/2021 20:30;1;25;25;28.24;43.00
11/10/2021 21:00;1;41;41;28.27;42.00
11/10/2021 21:30;1;31;31;27.19;52.00
11/10/2021 22:00;1;10;10;25.40;39.00
11/10/2021 22:30;1;6;6;26.67;41.00
11/10/2021 23:00;1;7;7;27.86;47.00
11/10/2021 23:30;1;2;2;32.00;36.00
12/10/2021 01:30;1;1;1;37.00;37.00
12/10/2021 03:00;1;1;1;45.00;45.00
12/10/2021 04:00;1;2;2;28.00;32.00
12/10/2021 04:30;1;1;1;23.00;23.00
12/10/2021 05:00;1;1;1;25.00;25.00
12/10/2021 05:30;1;5;5;28.60;40.00
12/10/2021 06:00;1;5;5;26.20;30.00
12/10/2021 06:30;1;11;11;25.00;31.00
12/10/2021 07:00;1;22;22;27.82;47.00
12/10/2021 07:30;1;26;26;26.69;42.00
12/10/2021 08:00;1;27;27;25.48;37.00
12/10/2021 08:30;1;34;34;27.12;45.00
12/10/2021 09:00;1;36;36;25.42;37.00
12/10/2021 09:30;1;37;37;26.49;38.00
12/10/2021 10:00;1;42;42;26.05;47.00
12/10/2021 10:30;1;40;40;26.60;39.00
12/10/2021 11:00;1;56;56;25.29;41.00
12/10/2021 11:30;1;53;53;25.64;40.00
12/10/2021 12:00;1;51;51;26.10;35.00
12/10/2021 12:30;1;51;51;25.86;38.00
12/10/2021 13:00;1;40;40;25.43;40.00
12/10/2021 13:30;1;38;38;26.26;36.00
12/10/2021 14:00;1;39;39;24.44;39.00
12/10/2021 14:30;1;41;41;25.29;39.00
12/10/2021 15:00;1;70;70;25.29;45.00
12/10/2021 15:30;1;67;67;26.51;44.00
12/10/2021 16:00;1;57;57;25.70;41.00
12/10/2021 16:30;1;56;56;26.64;41.00
12/10/2021 17:00;1;67;67;25.12;40.00
12/10/2021 17:30;1;54;54;27.69;62.00
12/10/2021 18:00;1;56;56;26.05;38.00
12/10/2021 18:30;1;46;46;25.93;45.00
12/10/2021 19:00;1;54;54;26.39;39.00
12/10/2021 19:30;1;25;25;28.76;39.00
12/10/2021 20:00;1;15;15;26.20;38.00
12/10/2021 20:30;1;19;19;27.68;44.00
12/10/2021 21:00;1;35;35;29.37;48.00
12/10/2021 21:30;1;41;41;28.95;42.00
12/10/2021 22:00;1;35;35;28.17;46.00
12/10/2021 22:30;1;10;10;29.70;47.00
12/10/2021 23:00;1;6;6;34.67;43.00
12/10/2021 23:30;1;2;2;21.50;25.00
13/10/2021 00:00;1;3;3;33.67;42.00
13/10/2021 02:00;1;1;1;42.00;42.00
13/10/2021 03:00;1;1;1;45.00;45.00
13/10/2021 03:30;1;1;1;22.00;22.00
13/10/2021 04:00;1;1;1;26.00;26.00
13/10/2021 04:30;1;1;1;33.00;33.00
13/10/2021 05:30;1;7;7;28.71;37.00
13/10/2021 06:00;1;5;5;31.00;44.00
13/10/2021 06:30;1;10;10;28.50;41.00
13/10/2021 07:00;1;19;19;26.47;41.00
13/10/2021 07:30;1;29;29;26.07;40.00
13/10/2021 08:00;1;24;24;25.75;36.00
13/10/2021 08:30;1;33;33;25.67;41.00
13/10/2021 09:00;1;33;33;27.00;42.00
13/10/2021 09:30;1;37;37;27.35;54.00
13/10/2021 10:00;1;50;50;26.90;42.00
13/10/2021 10:30;1;54;54;26.11;37.00
13/10/2021 11:00;1;45;45;25.78;36.00
13/10/2021 11:30;1;63;63;25.44;44.00
13/10/2021 12:00;1;61;61;26.62;43.00
13/10/2021 12:30;1;49;49;26.92;47.00
13/10/2021 13:00;1;48;48;27.17;44.00
13/10/2021 13:30;1;43;43;25.84;40.00
13/10/2021 14:00;1;44;44;25.93;39.00
13/10/2021 14:30;1;71;71;27.58;52.00
13/10/2021 15:00;1;81;81;25.81;40.00
13/10/2021 15:30;1;64;64;25.19;38.00
13/10/2021 16:00;1;62;62;25.45;46.00
13/10/2021 16:30;1;57;57;26.58;45.00
13/10/2021 17:00;1;78;78;27.50;45.00
13/10/2021 17:30;1;58;58;27.45;43.00
13/10/2021 18:00;1;41;41;25.02;45.00
13/10/2021 18:30;1;57;57;26.54;45.00
13/10/2021 19:00;1;46;46;25.48;42.00
13/10/2021 19:30;1;17;17;27.41;38.00
13/10/2021 20:00;1;28;28;28.29;37.00
13/10/2021 20:30;1;24;24;27.54;38.00
13/10/2021 21:00;1;32;32;28.41;52.00
13/10/2021 21:30;1;42;42;28.05;47.00
13/10/2021 22:00;1;27;27;29.37;48.00
13/10/2021 22:30;1;10;10;27.10;39.00
13/10/2021 23:00;1;7;7;27.29;37.00
13/10/2021 23:30;1;4;4;31.50;49.00
14/10/2021 00:30;1;1;1;45.00;45.00
14/10/2021 02:00;1;1;1;27.00;27.00
14/10/2021 03:00;1;1;1;47.00;47.00
14/10/2021 04:30;1;1;1;27.00;27.00
14/10/2021 05:00;1;1;1;34.00;34.00
14/10/2021 05:30;1;6;6;28.17;36.00
14/10/2021 06:00;1;3;3;27.00;31.00
14/10/2021 06:30;1;12;12;28.83;45.00
14/10/2021 07:00;1;23;23;25.00;43.00
14/10/2021 07:30;1;31;31;25.84;37.00
14/10/2021 08:00;1;41;41;27.73;50.00
14/10/2021 08:30;1;40;40;26.20;36.00
14/10/2021 09:00;1;33;33;26.24;41.00
14/10/2021 09:30;1;45;45;25.13;36.00
14/10/2021 10:00;1;46;46;26.28;44.00
14/10/2021 10:30;1;53;53;26.45;40.00
14/10/2021 11:00;1;56;56;26.82;46.00
14/10/2021 11:30;1;66;66;26.32;37.00
14/10/2021 12:00;1;61;61;24.69;50.00
14/10/2021 12:30;1;46;46;27.13;46.00
14/10/2021 13:00;1;33;33;26.42;39.00
14/10/2021 13:30;1;52;52;27.40;42.00
14/10/2021 14:00;1;48;48;24.44;41.00
14/10/2021 14:30;1;49;49;23.86;40.00
14/10/2021 15:00;1;85;85;23.58;41.00
14/10/2021 15:30;1;60;60;23.17;36.00
14/10/2021 16:00;1;76;76;23.33;33.00
14/10/2021 16:30;1;80;80;24.68;44.00
14/10/2021 17:00;1;80;80;24.93;39.00
14/10/2021 17:30;1;70;70;25.53;55.00
14/10/2021 18:00;1;54;54;27.04;42.00
14/10/2021 18:30;1;51;51;25.65;36.00
14/10/2021 19:00;1;41;41;26.37;44.00
14/10/2021 19:30;1;19;19;25.68;36.00
14/10/2021 20:00;1;11;11;27.64;43.00
14/10/2021 20:30;1;21;21;29.62;43.00
14/10/2021 21:00;1;35;35;29.29;43.00
14/10/2021 21:30;1;39;39;26.03;37.00
14/10/2021 22:00;1;34;34;28.47;43.00
14/10/2021 22:30;1;8;8;23.00;31.00
14/10/2021 23:00;1;10;10;27.40;43.00
14/10/2021 23:30;1;1;1;24.00;24.00
15/10/2021 00:00;1;4;4;30.75;39.00
15/10/2021 02:30;1;1;1;36.00;36.00
15/10/2021 03:00;1;1;1;43.00;43.00
15/10/2021 04:00;1;1;1;24.00;24.00
15/10/2021 05:00;1;2;2;27.00;34.00
15/10/2021 05:30;1;6;6;27.67;43.00
15/10/2021 06:00;1;3;3;26.33;29.00
15/10/2021 06:30;1;10;10;25.00;32.00
15/10/2021 07:00;1;22;22;27.05;41.00
15/10/2021 07:30;1;24;24;27.54;39.00
15/10/2021 08:00;1;23;23;26.09;36.00
15/10/2021 08:30;1;37;37;27.16;39.00
15/10/2021 09:00;1;43;43;27.09;43.00
15/10/2021 09:30;1;35;35;26.74;39.00
15/10/2021 10:00;1;45;45;28.67;47.00
15/10/2021 10:30;1;58;58;24.84;37.00
15/10/2021 11:00;1;51;51;25.86;46.00
15/10/2021 11:30;1;64;64;25.70;41.00
15/10/2021 12:00;1;59;59;24.49;41.00
15/10/2021 12:30;1;49;49;25.67;48.00
15/10/2021 13:00;1;47;47;26.04;43.00
15/10/2021 13:30;1;52;52;26.75;41.00
15/10/2021 14:00;1;57;57;26.56;51.00
15/10/2021 14:30;1;72;72;25.40;40.00
15/10/2021 15:00;1;71;71;25.83;43.00
15/10/2021 15:30;1;94;94;26.19;42.00
15/10/2021 16:00;1;65;65;25.62;44.00
15/10/2021 16:30;1;59;59;26.51;45.00
15/10/2021 17:00;1;69;69;25.10;43.00
15/10/2021 17:30;1;61;61;25.28;42.00
15/10/2021 18:00;1;60;60;26.42;42.00
15/10/2021 18:30;1;67;67;27.57;45.00
15/10/2021 19:00;1;45;45;28.40;44.00
15/10/2021 19:30;1;28;28;26.89;52.00
15/10/2021 20:00;1;14;14;27.79;36.00
15/10/2021 20:30;1;23;23;26.48;47.00
15/10/2021 21:00;1;36;36;28.36;40.00
15/10/2021 21:30;1;46;46;27.78;49.00
15/10/2021 22:00;1;35;35;27.20;42.00
15/10/2021 22:30;1;14;14;31.29;48.00
15/10/2021 23:00;1;16;16;28.44;43.00
15/10/2021 23:30;1;5;5;33.00;53.00
16/10/2021 00:00;1;1;1;19.00;19.00
16/10/2021 00:30;1;2;2;36.00;36.00
16/10/2021 01:00;1;3;3;27.67;32.00
16/10/2021 01:30;1;1;1;38.00;38.00
16/10/2021 02:00;1;1;1;16.00;16.00
16/10/2021 03:30;1;2;2;37.50;41.00
16/10/2021 04:00;1;1;1;55.00;55.00
16/10/2021 04:30;1;1;1;63.00;63.00
16/10/2021 05:30;1;3;3;35.33;37.00
16/10/2021 06:00;1;6;6;30.00;44.00
16/10/2021 06:30;1;6;6;31.17;50.00
16/10/2021 07:00;1;12;12;30.25;42.00
16/10/2021 07:30;1;4;4;26.25;29.00
16/10/2021 08:00;1;13;13;28.15;43.00
16/10/2021 08:30;1;17;17;26.29;35.00
16/10/2021 09:00;1;23;23;26.78;40.00
16/10/2021 09:30;1;33;33;26.24;37.00
16/10/2021 10:00;1;39;39;26.97;39.00
16/10/2021 10:30;1;53;53;25.47;43.00
16/10/2021 11:00;1;43;43;26.00;41.00
16/10/2021 11:30;1;50;50;26.70;38.00
16/10/2021 12:00;1;71;71;24.70;37.00
16/10/2021 12:30;1;37;37;26.46;42.00
16/10/2021 13:00;1;43;43;26.81;47.00
16/10/2021 13:30;1;42;42;27.67;43.00
16/10/2021 14:00;1;38;38;26.45;46.00
16/10/2021 14:30;1;63;63;25.98;42.00
16/10/2021 15:00;1;79;79;25.59;38.00
16/10/2021 15:30;1;95;95;25.80;42.00
16/10/2021 16:00;1;76;76;25.49;40.00
16/10/2021 16:30;1;61;61;25.39;39.00
16/10/2021 17:00;1;104;104;26.25;41.00
16/10/2021 17:30;1;80;80;25.71;44.00
16/10/2021 18:00;1;79;79;26.46;41.00
16/10/2021 18:30;1;65;65;26.94;41.00
16/10/2021 19:00;1;68;68;25.69;42.00
16/10/2021 19:30;1;25;25;27.88;45.00
16/10/2021 20:00;1;23;23;25.96;42.00
16/10/2021 20:30;1;25;25;28.96;44.00
16/10/2021 21:00;1;34;34;28.21;48.00
16/10/2021 21:30;1;49;49;26.90;39.00
16/10/2021 22:00;1;55;55;27.15;70.00
16/10/2021 22:30;1;20;20;29.20;47.00
16/10/2021 23:00;1;9;9;40.11;57.00
16/10/2021 23:30;1;6;6;34.67;50.00
17/10/2021 00:00;1;4;4;25.50;37.00
17/10/2021 00:30;1;3;3;24.33;28.00
17/10/2021 01:00;1;6;6;34.17;54.00
17/10/2021 01:30;1;1;1;19.00;19.00
17/10/2021 02:00;1;2;2;24.50;25.00
17/10/2021 02:30;1;1;1;24.00;24.00
17/10/2021 04:00;1;1;1;31.00;31.00
17/10/2021 05:30;1;1;1;43.00;43.00
17/10/2021 06:00;1;4;4;30.75;41.00
17/10/2021 06:30;1;1;1;17.00;17.00
17/10/2021 07:00;1;6;6;27.83;42.00
17/10/2021 07:30;1;4;4;27.75;33.00
17/10/2021 08:00;1;11;11;28.91;44.00
17/10/2021 08:30;1;14;14;27.43;43.00
17/10/2021 09:00;1;26;26;27.00;43.00
17/10/2021 09:30;1;26;26;28.46;44.00
17/10/2021 10:00;1;35;35;31.37;44.00
17/10/2021 10:30;1;41;41;28.15;39.00
17/10/2021 11:00;1;44;44;27.09;40.00
17/10/2021 11:30;1;72;72;28.12;47.00
17/10/2021 12:00;1;115;115;26.24;39.00
17/10/2021 12:30;1;79;79;27.16;51.00
17/10/2021 13:00;1;72;72;27.04;40.00
17/10/2021 13:30;1;118;118;26.30;39.00
17/10/2021 14:00;1;81;81;25.96;42.00
17/10/2021 14:30;1;85;85;26.52;41.00
17/10/2021 15:00;1;96;96;26.49;46.00
17/10/2021 15:30;1;79;79;26.96;44.00
17/10/2021 16:00;1;68;68;25.84;42.00
17/10/2021 16:30;1;73;73;24.75;37.00
17/10/2021 17:00;1;104;104;26.41;47.00
17/10/2021 17:30;1;68;68;25.99;42.00
17/10/2021 18:00;1;64;64;26.41;48.00
17/10/2021 18:30;1;74;74;26.54;44.00
17/10/2021 19:00;1;63;63;25.90;38.00
17/10/2021 19:30;1;19;19;27.32;46.00
17/10/2021 20:00;1;19;19;25.79;38.00
17/10/2021 20:30;1;24;24;27.54;39.00
17/10/2021 21:00;1;24;24;28.38;36.00
17/10/2021 21:30;1;36;36;29.25;51.00
17/10/2021 22:00;1;42;42;28.36;46.00
17/10/2021 22:30;1;9;9;35.56;50.00
17/10/2021 23:00;1;4;4;31.00;35.00
17/10/2021 23:30;1;2;2;36.00;41.00
18/10/2021 01:00;1;1;1;35.00;35.00
18/10/2021 01:30;1;1;1;43.00;43.00
18/10/2021 03:00;1;1;1;44.00;44.00
18/10/2021 04:00;1;1;1;28.00;28.00
18/10/2021 04:30;1;3;3;24.33;29.00
18/10/2021 05:00;1;2;2;30.50;39.00
18/10/2021 05:30;1;4;4;31.75;43.00
18/10/2021 06:00;1;4;4;29.00;37.00
18/10/2021 06:30;1;14;14;28.21;46.00
18/10/2021 07:00;1;17;17;25.35;33.00
18/10/2021 07:30;1;20;20;25.70;45.00
18/10/2021 08:00;1;19;19;26.16;42.00
18/10/2021 08:30;1;30;30;26.80;38.00
18/10/2021 09:00;1;32;32;28.34;44.00
18/10/2021 09:30;1;42;42;25.12;37.00
18/10/2021 10:00;1;44;44;27.27;39.00
18/10/2021 10:30;1;52;52;24.33;39.00
18/10/2021 11:00;1;51;51;25.51;44.00
18/10/2021 11:30;1;59;59;26.36;42.00
18/10/2021 12:00;1;50;50;26.12;36.00
18/10/2021 12:30;1;44;44;26.52;42.00
18/10/2021 13:00;1;44;44;24.95;36.00
18/10/2021 13:30;1;42;42;26.29;42.00
18/10/2021 14:00;1;33;33;24.00;33.00
18/10/2021 14:30;1;41;41;25.17;48.00
18/10/2021 15:00;1;83;83;26.63;41.00
18/10/2021 15:30;1;67;67;26.00;38.00
18/10/2021 16:00;1;76;76;26.30;43.00
18/10/2021 16:30;1;81;81;24.62;46.00
18/10/2021 17:00;1;79;79;25.27;36.00
18/10/2021 17:30;1;60;60;27.40;44.00
18/10/2021 18:00;1;44;44;25.66;41.00
18/10/2021 18:30;1;46;46;27.28;43.00
18/10/2021 19:00;1;34;34;26.53;37.00
18/10/2021 19:30;1;18;18;29.28;58.00
18/10/2021 20:00;1;15;15;26.73;33.00
18/10/2021 20:30;1;23;23;25.26;34.00
18/10/2021 21:00;1;36;36;28.25;46.00
18/10/2021 21:30;1;28;28;28.04;51.00
18/10/2021 22:00;1;20;20;27.30;47.00
18/10/2021 22:30;1;7;7;32.71;51.00
18/10/2021 23:00;1;3;3;36.33;53.00
18/10/2021 23:30;1;6;6;30.00;42.00
19/10/2021 01:00;1;2;2;36.50;39.00
19/10/2021 03:00;1;2;2;34.00;51.00
19/10/2021 04:00;1;2;2;37.50;52.00
19/10/2021 04:30;1;2;2;28.00;28.00
19/10/2021 05:00;1;2;2;27.00;34.00
19/10/2021 05:30;1;4;4;26.75;35.00
19/10/2021 06:00;1;8;8;26.38;35.00
19/10/2021 06:30;1;8;8;29.75;45.00
19/10/2021 07:00;1;25;25;24.12;37.00
19/10/2021 07:30;1;23;23;24.35;32.00
19/10/2021 08:00;1;35;35;25.91;41.00
19/10/2021 08:30;1;38;38;25.45;36.00
19/10/2021 09:00;1;39;39;24.85;39.00
19/10/2021 09:30;1;49;49;25.51;43.00
19/10/2021 10:00;1;33;33;26.61;36.00
19/10/2021 10:30;1;50;50;26.46;40.00
19/10/2021 11:00;1;46;46;26.26;44.00
19/10/2021 11:30;1;37;37;25.59;34.00
19/10/2021 12:00;1;58;58;25.34;34.00
19/10/2021 12:30;1;38;38;25.97;43.00
19/10/2021 13:00;1;48;48;25.48;43.00
19/10/2021 13:30;1;30;30;25.73;44.00
19/10/2021 14:00;1;48;48;28.19;49.00
19/10/2021 14:30;1;54;54;27.20;51.00
19/10/2021 15:00;1;77;77;24.95;43.00
19/10/2021 15:30;1;68;68;25.01;39.00
19/10/2021 16:00;1;66;66;26.62;43.00
19/10/2021 16:30;1;54;54;26.15;41.00
19/10/2021 17:00;1;79;79;25.67;39.00
19/10/2021 17:30;1;51;51;24.92;43.00
19/10/2021 18:00;1;48;48;26.79;42.00
19/10/2021 18:30;1;61;61;27.52;41.00
19/10/2021 19:00;1;55;55;28.24;63.00
19/10/2021 19:30;1;20;20;26.25;41.00
19/10/2021 20:00;1;21;21;24.67;38.00
19/10/2021 20:30;1;12;12;27.08;40.00
19/10/2021 21:00;1;37;37;26.95;39.00
19/10/2021 21:30;1;43;43;28.91;54.00
19/10/2021 22:00;1;23;23;27.52;45.00
19/10/2021 22:30;1;8;8;28.12;38.00
19/10/2021 23:00;1;2;2;31.50;37.00
19/10/2021 23:30;1;3;3;34.00;38.00
20/10/2021 01:30;1;1;1;33.00;33.00
20/10/2021 03:00;1;1;1;48.00;48.00
20/10/2021 04:00;1;2;2;26.50;30.00
20/10/2021 04:30;1;2;2;29.00;30.00
20/10/2021 05:30;1;4;4;27.75;40.00
20/10/2021 06:00;1;6;6;29.83;42.00
20/10/2021 06:30;1;17;17;28.00;43.00
20/10/2021 07:00;1;20;20;23.60;34.00
20/10/2021 07:30;1;34;34;26.06;38.00
20/10/2021 08:00;1;20;20;26.70;36.00
20/10/2021 08:30;1;43;43;26.70;43.00
20/10/2021 09:00;1;40;40;27.50;37.00
20/10/2021 09:30;1;33;33;27.27;46.00
20/10/2021 10:00;1;43;43;24.84;43.00
20/10/2021 10:30;1;52;52;24.67;35.00
20/10/2021 11:00;1;54;54;25.22;41.00
20/10/2021 11:30;1;53;53;24.00;34.00
20/10/2021 12:00;1;45;45;25.69;41.00
20/10/2021 12:30;1;45;45;26.11;54.00
20/10/2021 13:00;1;51;51;26.02;43.00
20/10/2021 13:30;1;48;48;24.83;40.00
20/10/2021 14:00;1;45;45;25.82;50.00
20/10/2021 14:30;1;49;49;24.86;42.00
20/10/2021 15:00;1;84;84;26.54;38.00
20/10/2021 15:30;1;74;74;26.53;39.00
20/10/2021 16:00;1;86;86;25.99;42.00
20/10/2021 16:30;1;77;77;25.90;42.00
20/10/2021 17:00;1;77;77;26.88;44.00
20/10/2021 17:30;1;61;61;25.77;42.00
20/10/2021 18:00;1;59;59;26.37;42.00
20/10/2021 18:30;1;51;51;24.53;43.00
20/10/2021 19:00;1;52;52;25.48;41.00
20/10/2021 19:30;1;17;17;29.24;45.00
20/10/2021 20:00;1;21;21;30.05;42.00
20/10/2021 20:30;1;19;19;28.32;40.00
20/10/2021 21:00;1;40;40;27.50;51.00
20/10/2021 21:30;1;27;27;30.00;56.00
20/10/2021 22:00;1;26;26;26.69;41.00
20/10/2021 22:30;1;10;10;28.70;47.00
20/10/2021 23:00;1;9;9;26.78;34.00
20/10/2021 23:30;1;5;5;25.40;27.00
21/10/2021 01:00;1;1;1;43.00;43.00
21/10/2021 01:30;1;1;1;40.00;40.00
21/10/2021 03:00;1;1;1;46.00;46.00
21/10/2021 03:30;1;1;1;24.00;24.00
21/10/2021 04:00;1;1;1;23.00;23.00
21/10/2021 04:30;1;1;1;23.00;23.00
21/10/2021 05:00;1;1;1;34.00;34.00
21/10/2021 05:30;1;3;3;38.00;55.00
21/10/2021 06:00;1;7;7;31.29;40.00
21/10/2021 06:30;1;7;7;31.57;44.00
21/10/2021 07:00;1;19;19;24.11;37.00
21/10/2021 07:30;1;33;33;29.33;51.00
21/10/2021 08:00;1;22;22;29.23;41.00
21/10/2021 08:30;1;36;36;26.11;38.00
21/10/2021 09:00;1;38;38;27.16;37.00
21/10/2021 09:30;1;32;32;26.75;37.00
21/10/2021 10:00;1;33;33;27.91;43.00
11/10/2021 12:30;2;22;22;29.05;40.00
11/10/2021 13:00;2;31;31;28.68;41.00
11/10/2021 13:30;2;29;29;31.07;44.00
11/10/2021 14:00;2;22;22;29.95;47.00
11/10/2021 14:30;2;27;27;29.89;41.00
11/10/2021 15:00;2;21;21;31.00;37.00
11/10/2021 15:30;2;24;24;33.08;56.00
11/10/2021 16:00;2;26;26;27.88;39.00
11/10/2021 16:30;2;22;22;31.27;46.00
11/10/2021 17:00;2;20;20;31.00;40.00
11/10/2021 17:30;2;38;38;30.24;45.00
11/10/2021 18:00;2;33;33;33.58;49.00
11/10/2021 18:30;2;16;16;31.81;42.00
11/10/2021 19:00;2;29;29;30.14;40.00
11/10/2021 19:30;2;11;11;31.64;44.00
11/10/2021 20:00;2;6;6;32.00;45.00
11/10/2021 20:30;2;9;9;28.89;39.00
11/10/2021 21:00;2;7;7;32.57;41.00
11/10/2021 21:30;2;6;6;30.67;39.00
11/10/2021 22:00;2;5;5;33.00;42.00
11/10/2021 22:30;2;1;1;30.00;30.00
11/10/2021 23:00;2;1;1;25.00;25.00
12/10/2021 01:30;2;1;1;37.00;37.00
12/10/2021 05:00;2;1;1;26.00;26.00
12/10/2021 05:30;2;8;8;33.38;43.00
12/10/2021 06:00;2;25;25;32.36;50.00
12/10/2021 06:30;2;13;13;29.38;39.00
12/10/2021 07:00;2;16;16;29.19;37.00
12/10/2021 07:30;2;35;35;30.54;71.00
12/10/2021 08:00;2;20;20;29.15;44.00
12/10/2021 08:30;2;21;21;28.67;36.00
12/10/2021 09:00;2;30;30;29.63;39.00
12/10/2021 09:30;2;32;32;30.41;52.00
12/10/2021 10:00;2;31;31;30.23;48.00
12/10/2021 10:30;2;22;22;30.64;43.00
12/10/2021 11:00;2;20;20;29.15;38.00
12/10/2021 11:30;2;33;33;32.33;49.00
12/10/2021 12:00;2;53;53;29.72;40.00
12/10/2021 12:30;2;36;36;28.97;49.00
12/10/2021 13:00;2;24;24;27.58;38.00
12/10/2021 13:30;2;31;31;26.32;42.00
12/10/2021 14:00;2;14;14;25.14;32.00
12/10/2021 14:30;2;20;20;30.85;56.00
12/10/2021 15:00;2;17;17;30.12;44.00
12/10/2021 15:30;2;43;43;30.74;43.00
12/10/2021 16:00;2;34;34;30.03;60.00
12/10/2021 16:30;2;28;28;32.61;46.00
12/10/2021 17:00;2;17;17;32.76;67.00
12/10/2021 17:30;2;34;34;29.38;44.00
12/10/2021 18:00;2;31;31;31.29;42.00
12/10/2021 18:30;2;12;12;27.67;33.00
12/10/2021 19:00;2;31;31;28.84;41.00
12/10/2021 19:30;2;26;26;32.08;44.00
12/10/2021 20:00;2;14;14;30.64;49.00
12/10/2021 20:30;2;5;5;30.40;34.00
12/10/2021 21:00;2;1;1;28.00;28.00
12/10/2021 21:30;2;6;6;35.33;44.00
12/10/2021 22:00;2;7;7;33.71;50.00
12/10/2021 22:30;2;6;6;30.00;46.00
12/10/2021 23:00;2;2;2;33.50;36.00
12/10/2021 23:30;2;1;1;30.00;30.00
13/10/2021 00:30;2;1;1;39.00;39.00
13/10/2021 02:00;2;1;1;41.00;41.00
13/10/2021 05:00;2;2;2;43.50;62.00
13/10/2021 05:30;2;10;10;35.30;54.00
13/10/2021 06:00;2;20;20;30.40;39.00
13/10/2021 06:30;2;16;16;31.12;50.00
13/10/2021 07:00;2;19;19;29.84;51.00
13/10/2021 07:30;2;22;22;30.73;41.00
13/10/2021 08:00;2;29;29;29.14;41.00
13/10/2021 08:30;2;19;19;28.79;41.00
13/10/2021 09:00;2;28;28;32.14;54.00
13/10/2021 09:30;2;24;24;29.75;39.00
13/10/2021 10:00;2;23;23;29.91;40.00
13/10/2021 10:30;2;31;31;29.19;43.00
13/10/2021 11:00;2;20;20;31.15;55.00
13/10/2021 11:30;2;24;24;29.67;47.00
13/10/2021 12:00;2;30;30;28.40;40.00
13/10/2021 12:30;2;32;32;29.28;47.00
13/10/2021 13:00;2;34;34;32.50;79.00
13/10/2021 13:30;2;37;37;30.14;43.00
13/10/2021 14:00;2;27;27;31.89;51.00
13/10/2021 14:30;2;24;24;30.12;55.00
13/10/2021 15:00;2;24;24;30.29;44.00
13/10/2021 15:30;2;45;45;30.53;43.00
13/10/2021 16:00;2;24;24;30.83;43.00
13/10/2021 16:30;2;22;22;28.73;36.00
13/10/2021 17:00;2;29;29;31.07;43.00
13/10/2021 17:30;2;34;34;31.88;44.00
13/10/2021 18:00;2;21;21;33.00;42.00
13/10/2021 18:30;2;26;26;31.85;48.00
13/10/2021 19:00;2;24;24;30.79;43.00
13/10/2021 19:30;2;19;19;28.79;37.00
13/10/2021 20:00;2;11;11;29.00;41.00
13/10/2021 20:30;2;9;9;32.00;39.00
13/10/2021 21:00;2;10;10;42.00;84.00
13/10/2021 21:30;2;8;8;30.12;42.00
13/10/2021 22:00;2;5;5;33.80;43.00
13/10/2021 22:30;2;4;4;32.50;40.00
13/10/2021 23:00;2;2;2;25.50;28.00
13/10/2021 23:30;2;1;1;39.00;39.00
14/10/2021 00:00;2;1;1;30.00;30.00
14/10/2021 00:30;2;2;2;45.00;46.00
14/10/2021 02:00;2;2;2;37.00;40.00
14/10/2021 03:30;2;1;1;23.00;23.00
14/10/2021 05:30;2;7;7;35.14;41.00
14/10/2021 06:00;2;20;20;32.30;44.00
14/10/2021 06:30;2;16;16;32.00;51.00
14/10/2021 07:00;2;11;11;27.27;32.00
14/10/2021 07:30;2;43;43;29.30;43.00
14/10/2021 08:00;2;16;16;31.38;51.00
14/10/2021 08:30;2;24;24;27.96;39.00
14/10/2021 09:00;2;27;27;28.63;52.00
14/10/2021 09:30;2;26;26;27.65;46.00
14/10/2021 10:00;2;28;28;27.25;37.00
14/10/2021 10:30;2;25;25;29.40;46.00
14/10/2021 11:00;2;19;19;28.32;40.00
14/10/2021 11:30;2;18;18;28.44;40.00
14/10/2021 12:00;2;42;42;28.17;45.00
14/10/2021 12:30;2;33;33;29.03;43.00
14/10/2021 13:00;2;21;21;29.38;40.00
14/10/2021 13:30;2;36;36;28.86;39.00
14/10/2021 14:00;2;18;18;26.39;43.00
14/10/2021 14:30;2;18;18;28.67;61.00
14/10/2021 15:00;2;25;25;27.36;40.00
14/10/2021 15:30;2;28;28;28.43;43.00
14/10/2021 16:00;2;30;30;27.43;45.00
14/10/2021 16:30;2;32;32;27.78;39.00
14/10/2021 17:00;2;15;15;27.93;39.00
14/10/2021 17:30;2;27;27;30.48;43.00
14/10/2021 18:00;2;20;20;29.70;43.00
14/10/2021 18:30;2;26;26;28.58;38.00
14/10/2021 19:00;2;26;26;31.54;45.00
14/10/2021 19:30;2;31;31;29.87;53.00
14/10/2021 20:00;2;14;14;30.71;43.00
14/10/2021 20:30;2;7;7;35.29;55.00
14/10/2021 21:00;2;7;7;27.29;33.00
14/10/2021 21:30;2;9;9;29.44;39.00
14/10/2021 22:00;2;6;6;33.67;42.00
14/10/2021 22:30;2;2;2;35.00;38.00
14/10/2021 23:00;2;2;2;25.00;26.00
14/10/2021 23:30;2;2;2;24.00;26.00
15/10/2021 00:30;2;1;1;35.00;35.00
15/10/2021 02:30;2;1;1;35.00;35.00
15/10/2021 05:30;2;6;6;33.50;38.00
15/10/2021 06:00;2;19;19;32.16;49.00
15/10/2021 06:30;2;15;15;31.67;39.00
15/10/2021 07:00;2;13;13;27.92;37.00
15/10/2021 07:30;2;39;39;30.10;44.00
15/10/2021 08:00;2;24;24;29.62;55.00
15/10/2021 08:30;2;23;23;28.00;40.00
15/10/2021 09:00;2;26;26;29.08;46.00
15/10/2021 09:30;2;25;25;31.40;54.00
15/10/2021 10:00;2;23;23;28.91;43.00
15/10/2021 10:30;2;24;24;28.96;42.00
15/10/2021 11:00;2;16;16;29.25;37.00
15/10/2021 11:30;2;27;27;29.44;42.00
15/10/2021 12:00;2;30;30;29.00;47.00
15/10/2021 12:30;2;32;32;30.12;43.00
15/10/2021 13:00;2;28;28;30.04;43.00
15/10/2021 13:30;2;32;32;29.91;41.00
15/10/2021 14:00;2;35;35;29.43;52.00
15/10/2021 14:30;2;25;25;27.32;47.00
15/10/2021 15:00;2;18;18;29.11;38.00
15/10/2021 15:30;2;29;29;31.31;47.00
15/10/2021 16:00;2;30;30;31.67;47.00
15/10/2021 16:30;2;27;27;30.96;43.00
15/10/2021 17:00;2;21;21;30.76;45.00
15/10/2021 17:30;2;36;36;30.06;40.00
15/10/2021 18:00;2;25;25;30.16;43.00
15/10/2021 18:30;2;23;23;30.83;43.00
15/10/2021 19:00;2;40;40;29.65;46.00
15/10/2021 19:30;2;27;27;29.74;44.00
15/10/2021 20:00;2;14;14;30.00;42.00
15/10/2021 20:30;2;6;6;29.67;36.00
15/10/2021 21:00;2;11;11;33.73;40.00
15/10/2021 21:30;2;9;9;31.67;39.00
15/10/2021 22:00;2;7;7;29.57;35.00
15/10/2021 22:30;2;4;4;34.00;42.00
15/10/2021 23:00;2;5;5;33.20;43.00
15/10/2021 23:30;2;2;2;34.50;36.00
16/10/2021 00:00;2;2;2;33.00;34.00
16/10/2021 01:00;2;1;1;43.00;43.00
16/10/2021 02:30;2;1;1;51.00;51.00
16/10/2021 04:30;2;1;1;56.00;56.00
16/10/2021 05:30;2;4;4;36.75;43.00
16/10/2021 06:00;2;13;13;30.15;37.00
16/10/2021 06:30;2;6;6;32.33;42.00
16/10/2021 07:00;2;7;7;27.14;37.00
16/10/2021 07:30;2;7;7;30.14;36.00
16/10/2021 08:00;2;4;4;31.00;44.00
16/10/2021 08:30;2;18;18;31.89;64.00
16/10/2021 09:00;2;17;17;31.12;43.00
16/10/2021 09:30;2;15;15;30.20;43.00
16/10/2021 10:00;2;23;23;29.39;40.00
16/10/2021 10:30;2;16;16;31.62;44.00
16/10/2021 11:00;2;21;21;30.52;45.00
16/10/2021 11:30;2;23;23;32.48;48.00
16/10/2021 12:00;2;47;47;28.49;42.00
16/10/2021 12:30;2;28;28;30.14;43.00
16/10/2021 13:00;2;27;27;29.81;39.00
16/10/2021 13:30;2;48;48;31.19;45.00
16/10/2021 14:00;2;23;23;29.22;38.00
16/10/2021 14:30;2;37;37;30.49;42.00
16/10/2021 15:00;2;30;30;30.67;43.00
16/10/2021 15:30;2;50;50;30.64;46.00
16/10/2021 16:00;2;34;34;30.65;49.00
16/10/2021 16:30;2;18;18;29.61;44.00
16/10/2021 17:00;2;25;25;30.68;46.00
16/10/2021 17:30;2;27;27;34.56;53.00
16/10/2021 18:00;2;19;19;32.58;43.00
16/10/2021 18:30;2;23;23;34.26;52.00
16/10/2021 19:00;2;49;49;28.88;55.00
16/10/2021 19:30;2;26;26;29.85;41.00
16/10/2021 20:00;2;11;11;29.91;41.00
16/10/2021 20:30;2;10;10;31.00;51.00
16/10/2021 21:00;2;4;4;29.25;34.00
16/10/2021 21:30;2;14;14;27.57;34.00
16/10/2021 22:00;2;9;9;29.67;39.00
16/10/2021 22:30;2;2;2;35.00;36.00
16/10/2021 23:00;2;3;3;44.67;64.00
16/10/2021 23:30;2;2;2;31.50;35.00
17/10/2021 00:00;2;2;2;40.00;45.00
17/10/2021 00:30;2;1;1;29.00;29.00
17/10/2021 01:00;2;1;1;43.00;43.00
17/10/2021 02:00;2;1;1;27.00;27.00
17/10/2021 05:30;2;6;6;38.33;49.00
17/10/2021 06:00;2;13;13;33.08;55.00
17/10/2021 06:30;2;5;5;31.20;46.00
17/10/2021 07:00;2;1;1;21.00;21.00
17/10/2021 07:30;2;5;5;26.20;32.00